Weather History for Bentonville, AR

Change the Weather History Date:

Friday, October 7, 2011

  Actual Average Record
Temperature  
Mean Temperature 71 °F -  
Max Temperature 80 °F 71 °F 90 °F (1963)
Min Temperature 62 °F 47 °F 25 °F (1952)
Cooling Degree Days 6    
Growing Degree Days 21 (Base 50)    
Moisture  
Dew Point 52 °F    
Average Humidity 52    
Maximum Humidity 73    
Minimum Humidity 34    
Precipitation  
Precipitation 0.00 in - - ()
Sea Level Pressure  
Sea Level Pressure 30.12 in    
Wind  
Wind Speed 11 mph (SSE)    
Max Wind Speed 22 mph    
Max Gust Speed 29 mph    
Visibility 10 miles    
Events      
Averages and records for this station are not official NWS values.
T = Trace of Precipitation, MM = Missing Value Source: NWS Daily Summary

Daily Weather History Graph

Daily Weather History Graph

Search for Another Location

Airport:

Trip Planner

Search our weather history database for the weather conditions in past years. The results will help you decide how hot, cold, wet, or windy it might be!

Date:

Astronomy

Oct. 07, 2011 Rise Set
Actual Time 7:16 AM CDT 6:52 PM CDT
Civil Twilight 6:51 AM CDT 7:17 PM CDT
Nautical Twilight 6:21 AM CDT 7:47 PM CDT
Astronomical Twilight 5:51 AM CDT 8:17 PM CDT
Moon 4:30 PM CDT (10/7) 3:12 AM CDT (10/7)
Length of Visible Light 12h 26m
Length of Day
11h 35m
Waxing Gibbous, 83% of the Moon is Illuminated
Oct 7
Waxing Gibbous
Oct 11
Full
Oct 19
Last Quarter
Oct 26
New
Nov 2
First Quarter

Hourly Weather History & Observations

Time (CDT) Temp. Heat Index Dew Point Humidity Pressure Visibility Wind Dir Wind Speed Gust Speed Precip Events Conditions
12:15 AM 66.2 °F - 48.2 °F 52% 30.07 in 10.0 mi SE 10.4 mph - N/A   Clear
12:35 AM 66.2 °F - 48.2 °F 52% 30.06 in 10.0 mi SE 12.7 mph - N/A   Clear
12:55 AM 68.0 °F - 48.2 °F 49% 30.06 in 10.0 mi SE 12.7 mph - N/A   Clear
1:15 AM 68.0 °F - 48.2 °F 49% 30.06 in 10.0 mi SSE 12.7 mph - N/A   Clear
1:35 AM 68.0 °F - 48.2 °F 49% 30.06 in 10.0 mi SE 12.7 mph - N/A   Clear
1:55 AM 68.0 °F - 48.2 °F 49% 30.07 in 10.0 mi SE 8.1 mph - N/A   Clear
2:35 AM 68.0 °F - 48.2 °F 49% 30.07 in 10.0 mi SSE 10.4 mph - N/A   Clear
2:55 AM 68.0 °F - 48.2 °F 49% 30.07 in 10.0 mi SSE 10.4 mph - N/A   Clear
3:15 AM 66.2 °F - 48.2 °F 52% 30.07 in 10.0 mi SSE 9.2 mph - N/A   Clear
3:35 AM 66.2 °F - 50.0 °F 56% 30.07 in 10.0 mi SSE 9.2 mph - N/A   Clear
3:55 AM 66.2 °F - 50.0 °F 56% 30.07 in 10.0 mi SSE 11.5 mph - N/A   Clear
4:15 AM 66.2 °F - 51.8 °F 60% 30.08 in 10.0 mi SSE 11.5 mph - N/A   Clear
4:35 AM 66.2 °F - 51.8 °F 60% 30.08 in 10.0 mi SSE 10.4 mph 16.1 mph N/A   Clear
4:55 AM 66.2 °F - 51.8 °F 60% 30.09 in 10.0 mi SSE 9.2 mph - N/A   Clear
5:15 AM 66.2 °F - 51.8 °F 60% 30.09 in 10.0 mi SSE 11.5 mph - N/A   Clear
5:35 AM 66.2 °F - 51.8 °F 60% 30.10 in 10.0 mi SSE 9.2 mph - N/A   Clear
5:55 AM 64.4 °F - 51.8 °F 64% 30.10 in 10.0 mi SE 9.2 mph - N/A   Clear
6:15 AM 64.4 °F - 51.8 °F 64% 30.11 in 10.0 mi SE 9.2 mph - N/A   Clear
6:35 AM 64.4 °F - 51.8 °F 64% 30.12 in 10.0 mi SE 8.1 mph - N/A   Clear
6:55 AM 62.6 °F - 53.6 °F 72% 30.13 in 10.0 mi SSE 8.1 mph - N/A   Clear
7:15 AM 62.6 °F - 53.6 °F 72% 30.13 in 10.0 mi SE 8.1 mph - N/A   Clear
7:35 AM 62.6 °F - 53.6 °F 72% 30.14 in 10.0 mi SE 8.1 mph - N/A   Clear
7:55 AM 64.4 °F - 53.6 °F 68% 30.14 in 10.0 mi SE 8.1 mph - N/A   Clear
8:15 AM 64.4 °F - 55.4 °F 73% 30.15 in 10.0 mi SE 8.1 mph - N/A   Clear
8:35 AM 66.2 °F - 55.4 °F 68% 30.16 in 10.0 mi SE 6.9 mph - N/A   Clear
8:55 AM 68.0 °F - 57.2 °F 68% 30.16 in 10.0 mi SSE 9.2 mph - N/A   Clear
9:15 AM 69.8 °F - 57.2 °F 64% 30.16 in 10.0 mi South 8.1 mph 16.1 mph N/A   Clear
9:35 AM 71.6 °F - 57.2 °F 60% 30.17 in 10.0 mi South 12.7 mph 23.0 mph N/A   Clear
9:55 AM 73.4 °F - 57.2 °F 57% 30.17 in 10.0 mi South 17.3 mph 24.2 mph N/A   Clear
10:15 AM 73.4 °F - 57.2 °F 57% 30.17 in 10.0 mi South 15.0 mph 24.2 mph N/A   Clear
10:35 AM 75.2 °F - 57.2 °F 53% 30.18 in 10.0 mi South 13.8 mph 21.9 mph N/A   Clear
10:55 AM 75.2 °F - 57.2 °F 53% 30.18 in 10.0 mi SSE 17.3 mph 24.2 mph N/A   Clear
11:15 AM 75.2 °F - 59.0 °F 57% 30.18 in 10.0 mi South 17.3 mph 24.2 mph N/A   Clear
11:35 AM 75.2 °F - 57.2 °F 53% 30.18 in 10.0 mi South 13.8 mph 28.8 mph N/A   Clear
11:55 AM 77.0 °F - 57.2 °F 50% 30.18 in 10.0 mi South 12.7 mph 23.0 mph N/A   Clear
12:35 PM 78.8 °F - 55.4 °F 44% 30.17 in 10.0 mi SSE 17.3 mph 24.2 mph N/A   Clear
12:55 PM 78.8 °F - 53.6 °F 42% 30.16 in 10.0 mi SSE 18.4 mph 25.3 mph N/A   Clear
1:15 PM 78.8 °F - 53.6 °F 42% 30.15 in 10.0 mi SSE 16.1 mph 24.2 mph N/A   Clear
1:35 PM 80.6 °F 80.3 °F 53.6 °F 39% 30.14 in 10.0 mi SE 21.9 mph - N/A   Clear
1:55 PM 80.6 °F 80.3 °F 53.6 °F 39% 30.13 in 10.0 mi SSE 13.8 mph 23.0 mph N/A   Clear
2:35 PM 80.6 °F 80.3 °F 53.6 °F 39% 30.12 in 10.0 mi SE 17.3 mph 21.9 mph N/A   Clear
3:15 PM 80.6 °F - 51.8 °F 37% 30.11 in 10.0 mi SSE 16.1 mph 23.0 mph N/A   Clear
3:35 PM 80.6 °F - 51.8 °F 37% 30.11 in 10.0 mi SSE 13.8 mph 23.0 mph N/A   Clear
4:15 PM 80.6 °F - 51.8 °F 37% 30.10 in 10.0 mi SSE 13.8 mph 19.6 mph N/A   Clear
4:35 PM 80.6 °F - 51.8 °F 37% 30.10 in 10.0 mi SSE 11.5 mph - N/A   Clear
4:55 PM 80.6 °F - 51.8 °F 37% 30.10 in 10.0 mi SE 15.0 mph 20.7 mph N/A   Clear
5:15 PM 80.6 °F - 50.0 °F 34% 30.10 in 10.0 mi SE 15.0 mph 20.7 mph N/A   Clear
5:35 PM 78.8 °F - 48.2 °F 34% 30.10 in 10.0 mi SSE 10.4 mph - N/A   Clear
5:55 PM 78.8 °F - 48.2 °F 34% 30.09 in 10.0 mi SSE 12.7 mph 18.4 mph N/A   Clear
6:15 PM 77.0 °F - 48.2 °F 36% 30.09 in 10.0 mi SE 10.4 mph - N/A   Clear
6:35 PM 75.2 °F - 50.0 °F 41% 30.09 in 10.0 mi SE 8.1 mph - N/A   Clear
6:55 PM 73.4 °F - 48.2 °F 41% 30.10 in 10.0 mi SE 9.2 mph - N/A   Clear
7:15 PM 71.6 °F - 50.0 °F 46% 30.10 in 10.0 mi SE 8.1 mph - N/A   Clear
7:35 PM 71.6 °F - 50.0 °F 46% 30.10 in 10.0 mi SE 9.2 mph - N/A   Clear
7:55 PM 71.6 °F - 50.0 °F 46% 30.11 in 7.0 mi SE 8.1 mph - N/A   Clear
8:15 PM 71.6 °F - 50.0 °F 46% 30.11 in 10.0 mi SE 9.2 mph - N/A   Clear
8:35 PM 69.8 °F - 50.0 °F 49% 30.11 in 10.0 mi SE 8.1 mph - N/A   Clear
8:55 PM 69.8 °F - 51.8 °F 53% 30.12 in 10.0 mi ESE 8.1 mph - N/A   Clear
9:15 PM 69.8 °F - 51.8 °F 53% 30.12 in 10.0 mi ESE 9.2 mph - N/A   Clear
9:35 PM 69.8 °F - 51.8 °F 53% 30.12 in 10.0 mi ESE 9.2 mph - N/A   Clear
9:55 PM 69.8 °F - 51.8 °F 53% 30.12 in 10.0 mi ESE 8.1 mph - N/A   Clear
10:15 PM 69.8 °F - 51.8 °F 53% 30.12 in 10.0 mi ESE 10.4 mph - N/A   Clear
10:35 PM 69.8 °F - 51.8 °F 53% 30.13 in 10.0 mi ESE 9.2 mph - N/A   Clear
10:55 PM 69.8 °F - 51.8 °F 53% 30.13 in 10.0 mi ESE 9.2 mph - N/A   Clear
11:15 PM 68.0 °F - 51.8 °F 56% 30.12 in 10.0 mi SE 8.1 mph - N/A   Clear
11:35 PM 66.2 °F - 51.8 °F 60% 30.12 in 10.0 mi SE 8.1 mph - N/A   Clear
11:55 PM 66.2 °F - 51.8 °F 60% 30.12 in 10.0 mi SE 8.1 mph - N/A   Clear